SWA18D KSMF-KLAX

Flight info

Callsign SWA18D
Flight time 0h 56m
Altitude 39000
Route FTHIL3 FRA REBRG IRNMN2
Aircraft B737/M-SDE2E3FGHIRWXY/LB1

Departure

Time 2026-04-26 06:39
Airport Sacramento International Airport (KSMF)

Arrival

Time 2026-04-26 07:36
Airport Los Angeles International Airport (KLAX)
Time Latitude Longitude Altitude Speed Heading
2026-04-26 06:06 38.69628 -121.59362 22 ft 0 kts 181°
2026-04-26 06:31 38.69635 -121.59362 22 ft 4 kts 182°
2026-04-26 06:31 38.69661 -121.59357 24 ft 4 kts 198°
2026-04-26 06:32 38.69684 -121.59343 22 ft 4 kts 223°
2026-04-26 06:33 38.69696 -121.59320 24 ft 4 kts 265°
2026-04-26 06:33 38.69697 -121.59315 23 ft 1 kts 271°
2026-04-26 06:35 38.69697 -121.59317 23 ft 1 kts 271°
2026-04-26 06:36 38.69697 -121.59346 22 ft 6 kts 271°
2026-04-26 06:36 38.69698 -121.59418 25 ft 10 kts 271°
2026-04-26 06:36 38.69699 -121.59532 22 ft 15 kts 271°
2026-04-26 06:36 38.69700 -121.59674 22 ft 6 kts 271°
2026-04-26 06:37 38.69701 -121.59748 22 ft 11 kts 271°
2026-04-26 06:37 38.69708 -121.59859 24 ft 13 kts 297°
2026-04-26 06:37 38.69796 -121.59864 22 ft 15 kts
2026-04-26 06:37 38.69912 -121.59854 22 ft 19 kts
2026-04-26 06:38 38.70054 -121.59855 22 ft 22 kts 359°
2026-04-26 06:38 38.70125 -121.59988 23 ft 19 kts 271°
2026-04-26 06:38 38.70117 -121.60098 26 ft 19 kts 245°
2026-04-26 06:38 38.70038 -121.60123 25 ft 27 kts 180°
2026-04-26 06:39 38.69586 -121.60127 20 ft 100 kts 180°
2026-04-26 06:39 38.68692 -121.60152 43 ft 154 kts 182°
2026-04-26 06:39 38.67565 -121.60218 485 ft 169 kts 182°
2026-04-26 06:39 38.66398 -121.59971 1287 ft 176 kts 154°
2026-04-26 06:40 38.65498 -121.58753 1662 ft 210 kts 125°
2026-04-26 06:40 38.64725 -121.57077 2091 ft 226 kts 124°
2026-04-26 06:40 38.63914 -121.55308 2590 ft 236 kts 124°
2026-04-26 06:40 38.63064 -121.53481 3154 ft 242 kts 125°
2026-04-26 06:41 38.62185 -121.51625 3730 ft 245 kts 125°
2026-04-26 06:41 38.61303 -121.49792 4347 ft 245 kts 126°
2026-04-26 06:41 38.60402 -121.47942 4982 ft 244 kts 126°
2026-04-26 06:41 38.59497 -121.46107 5586 ft 243 kts 126°
2026-04-26 06:42 38.58595 -121.44290 6210 ft 241 kts 126°
2026-04-26 06:42 38.57694 -121.42488 6776 ft 240 kts 126°
2026-04-26 06:42 38.56791 -121.40691 7322 ft 239 kts 125°
2026-04-26 06:42 38.55896 -121.38916 7843 ft 239 kts 125°
2026-04-26 06:43 38.54991 -121.37129 8350 ft 240 kts 124°
2026-04-26 06:43 38.54083 -121.35337 8847 ft 241 kts 124°
2026-04-26 06:43 38.53168 -121.33536 9341 ft 244 kts 124°
2026-04-26 06:43 38.52229 -121.31690 9798 ft 252 kts 123°
2026-04-26 06:44 38.51258 -121.29783 10262 ft 259 kts 123°
2026-04-26 06:44 38.50264 -121.27834 10734 ft 264 kts 123°
2026-04-26 06:44 38.49255 -121.25856 11246 ft 268 kts 123°
2026-04-26 06:44 38.48231 -121.23853 11769 ft 270 kts 123°
2026-04-26 06:45 38.47196 -121.21829 12279 ft 279 kts 123°
2026-04-26 06:45 38.46072 -121.19633 12524 ft 311 kts 123°
2026-04-26 06:45 38.44832 -121.17212 12768 ft 340 kts 123°
2026-04-26 06:45 38.43503 -121.14620 13355 ft 356 kts 123°
2026-04-26 06:46 38.42130 -121.11943 14209 ft 362 kts 123°
2026-04-26 06:46 38.40747 -121.09248 15146 ft 365 kts 123°
2026-04-26 06:46 38.39345 -121.06518 16087 ft 370 kts 123°
2026-04-26 06:46 38.37926 -121.03757 16992 ft 375 kts 122°
2026-04-26 06:47 38.36487 -121.00961 17886 ft 380 kts 122°
2026-04-26 06:47 38.35045 -120.98158 18741 ft 384 kts 122°
2026-04-26 06:47 38.33556 -120.95271 19504 ft 389 kts 122°
2026-04-26 06:47 38.32060 -120.92373 20311 ft 393 kts 122°
2026-04-26 06:48 38.30568 -120.89483 21042 ft 398 kts 122°
2026-04-26 06:48 38.29036 -120.86520 21800 ft 403 kts 122°
2026-04-26 06:48 38.27489 -120.83531 22585 ft 406 kts 122°
2026-04-26 06:48 38.25923 -120.80509 23326 ft 411 kts 123°
2026-04-26 06:49 38.24339 -120.77452 23942 ft 415 kts 123°
2026-04-26 06:49 38.22741 -120.74374 24541 ft 419 kts 123°
2026-04-26 06:49 38.21123 -120.71258 25141 ft 423 kts 123°
2026-04-26 06:49 38.19490 -120.68117 25701 ft 427 kts 123°
2026-04-26 06:50 38.17851 -120.64968 26271 ft 431 kts 123°
2026-04-26 06:50 38.16188 -120.61776 26828 ft 435 kts 123°
2026-04-26 06:50 38.14510 -120.58557 27401 ft 438 kts 123°
2026-04-26 06:50 38.12822 -120.55322 27938 ft 442 kts 123°
2026-04-26 06:51 38.11116 -120.52055 28473 ft 445 kts 123°
2026-04-26 06:51 38.07666 -120.45458 29421 ft 453 kts 123°
2026-04-26 06:51 38.05918 -120.42123 29902 ft 456 kts 124°
2026-04-26 06:52 38.04120 -120.38802 30349 ft 457 kts 125°
2026-04-26 06:52 38.02276 -120.35502 30744 ft 460 kts 126°
2026-04-26 06:52 38.00410 -120.32191 31087 ft 463 kts 126°
2026-04-26 06:52 37.98538 -120.28854 31440 ft 465 kts 126°
2026-04-26 06:53 37.96668 -120.25503 31891 ft 465 kts 126°
2026-04-26 06:53 37.94736 -120.22242 32406 ft 462 kts 134°
2026-04-26 06:53 37.92247 -120.19715 32886 ft 458 kts 150°
2026-04-26 06:53 37.89509 -120.17675 33414 ft 455 kts 151°
2026-04-26 06:54 37.86757 -120.15682 33794 ft 457 kts 152°
2026-04-26 06:54 37.83987 -120.13681 34039 ft 460 kts 152°
2026-04-26 06:54 37.81211 -120.11662 34351 ft 460 kts 152°
2026-04-26 06:54 37.78459 -120.09640 34874 ft 454 kts 152°
2026-04-26 06:55 37.75774 -120.07654 35341 ft 451 kts 152°
2026-04-26 06:55 37.73061 -120.05642 35576 ft 454 kts 152°
2026-04-26 06:55 37.70327 -120.03612 35736 ft 458 kts 152°
2026-04-26 06:55 37.67572 -120.01566 36031 ft 457 kts 152°
2026-04-26 06:56 37.64908 -119.99582 37149 ft 429 kts 153°
2026-04-26 06:56 37.62458 -119.97751 38690 ft 388 kts 154°
2026-04-26 06:56 37.60147 -119.96026 38804 ft 391 kts 154°
2026-04-26 06:56 37.57798 -119.94293 38870 ft 390 kts 154°
2026-04-26 06:57 37.53035 -119.90792 38911 ft 403 kts 154°
2026-04-26 06:57 37.48103 -119.87163 38950 ft 417 kts 154°
2026-04-26 06:58 37.43002 -119.83406 38962 ft 432 kts 154°
2026-04-26 06:58 37.37738 -119.79530 38948 ft 445 kts 154°
2026-04-26 06:59 37.32311 -119.75541 38941 ft 457 kts 154°
2026-04-26 06:59 37.26758 -119.71466 38948 ft 465 kts 154°
2026-04-26 07:00 37.21170 -119.67369 38932 ft 465 kts 154°
2026-04-26 07:00 37.15619 -119.63309 38931 ft 464 kts 154°
2026-04-26 07:01 37.09875 -119.59778 38930 ft 453 kts 172°
2026-04-26 07:01 37.06781 -119.59372 38948 ft 443 kts 184°
2026-04-26 07:01 37.03697 -119.59410 38955 ft 442 kts 185°
2026-04-26 07:02 36.97539 -119.59631 38928 ft 442 kts 186°
2026-04-26 07:02 36.91381 -119.59823 38933 ft 443 kts 186°
2026-04-26 07:03 36.85227 -119.59958 38946 ft 443 kts 185°
2026-04-26 07:03 36.79072 -119.60069 38944 ft 443 kts 185°
2026-04-26 07:04 36.72902 -119.60177 38938 ft 443 kts 185°
2026-04-26 07:04 36.66740 -119.60286 38944 ft 444 kts 185°
2026-04-26 07:05 36.60651 -119.60394 38942 ft 444 kts 185°
2026-04-26 07:05 36.54477 -119.60504 38947 ft 444 kts 185°
2026-04-26 07:06 36.48316 -119.60613 38954 ft 444 kts 185°
2026-04-26 07:06 36.42138 -119.60723 38953 ft 444 kts 185°
2026-04-26 07:07 36.35984 -119.60832 38953 ft 444 kts 185°
2026-04-26 07:07 36.29830 -119.60941 38948 ft 443 kts 186°
2026-04-26 07:08 36.23660 -119.61050 38954 ft 443 kts 186°
2026-04-26 07:08 36.17499 -119.61159 38952 ft 442 kts 186°
2026-04-26 07:09 36.11343 -119.61267 38937 ft 442 kts 186°
2026-04-26 07:09 36.05193 -119.61375 38940 ft 441 kts 186°
2026-04-26 07:10 35.95972 -119.60660 38944 ft 452 kts 170°
2026-04-26 07:11 35.89971 -119.58177 38929 ft 456 kts 166°
2026-04-26 07:11 35.83995 -119.55544 38946 ft 456 kts 166°
2026-04-26 07:12 35.78012 -119.52949 38951 ft 456 kts 166°
2026-04-26 07:12 35.72025 -119.50394 38926 ft 456 kts 167°
2026-04-26 07:13 35.66038 -119.47856 38942 ft 456 kts 167°
2026-04-26 07:13 35.60055 -119.45325 38946 ft 456 kts 167°
2026-04-26 07:14 35.54073 -119.42798 38943 ft 456 kts 167°
2026-04-26 07:14 35.48111 -119.40281 38935 ft 456 kts 167°
2026-04-26 07:15 35.42102 -119.37748 38937 ft 456 kts 167°
2026-04-26 07:15 35.36102 -119.35224 38933 ft 456 kts 167°
2026-04-26 07:15 35.33084 -119.33957 38586 ft 463 kts 167°
2026-04-26 07:16 35.30037 -119.32681 37952 ft 464 kts 167°
2026-04-26 07:16 35.26993 -119.31402 37262 ft 461 kts 167°
2026-04-26 07:16 35.23957 -119.30127 36558 ft 460 kts 167°
2026-04-26 07:16 35.20930 -119.28857 35850 ft 459 kts 167°
2026-04-26 07:17 35.17908 -119.27592 35049 ft 461 kts 166°
2026-04-26 07:17 35.15907 -119.26756 34491 ft 463 kts 166°
2026-04-26 07:17 35.12848 -119.25479 33529 ft 466 kts 166°
2026-04-26 07:17 35.09781 -119.24198 32561 ft 468 kts 167°
2026-04-26 07:18 35.06704 -119.22914 31665 ft 468 kts 166°
2026-04-26 07:18 35.03645 -119.21635 31032 ft 461 kts 166°
2026-04-26 07:18 35.00625 -119.20372 30381 ft 456 kts 166°
2026-04-26 07:18 34.97638 -119.19126 29679 ft 451 kts 166°
2026-04-26 07:19 34.94681 -119.17894 28928 ft 446 kts 166°
2026-04-26 07:19 34.91769 -119.16681 28255 ft 439 kts 167°
2026-04-26 07:19 34.88892 -119.15482 27590 ft 433 kts 167°
2026-04-26 07:19 34.86061 -119.14310 26947 ft 427 kts 167°
2026-04-26 07:20 34.83269 -119.13153 26292 ft 422 kts 167°
2026-04-26 07:20 34.80499 -119.12006 25641 ft 418 kts 167°
2026-04-26 07:20 34.77761 -119.10873 25025 ft 414 kts 167°
2026-04-26 07:20 34.75035 -119.09808 24384 ft 410 kts 168°
2026-04-26 07:21 34.72318 -119.08800 23754 ft 407 kts 169°
2026-04-26 07:21 34.69624 -119.07817 23115 ft 403 kts 169°
2026-04-26 07:21 34.66953 -119.06844 22423 ft 399 kts 168°
2026-04-26 07:21 34.64304 -119.05875 21765 ft 395 kts 168°
2026-04-26 07:22 34.61687 -119.04912 21101 ft 392 kts 168°
2026-04-26 07:22 34.59090 -119.03949 20453 ft 388 kts 168°
2026-04-26 07:22 34.56525 -119.03000 19818 ft 385 kts 167°
2026-04-26 07:22 34.53985 -119.02061 19211 ft 382 kts 167°
2026-04-26 07:23 34.51453 -119.01124 18555 ft 380 kts 168°
2026-04-26 07:23 34.48970 -119.00200 17954 ft 376 kts 168°
2026-04-26 07:23 34.46488 -118.99279 17339 ft 372 kts 167°
2026-04-26 07:23 34.44041 -118.98375 16759 ft 368 kts 167°
2026-04-26 07:24 34.41604 -118.97475 16180 ft 364 kts 167°
2026-04-26 07:24 34.39192 -118.96585 15597 ft 361 kts 167°
2026-04-26 07:24 34.36801 -118.95703 15020 ft 357 kts 167°
2026-04-26 07:24 34.34443 -118.94832 14496 ft 352 kts 167°
2026-04-26 07:25 34.32108 -118.93971 13980 ft 348 kts 167°
2026-04-26 07:25 34.29841 -118.93134 13806 ft 333 kts 167°
2026-04-26 07:25 34.27676 -118.92332 13692 ft 317 kts 167°
2026-04-26 07:25 34.25609 -118.91568 13592 ft 303 kts 168°
2026-04-26 07:26 34.23636 -118.90840 13424 ft 292 kts 168°
2026-04-26 07:26 34.21698 -118.90129 13045 ft 289 kts 168°
2026-04-26 07:26 34.19776 -118.89426 12602 ft 289 kts 168°
2026-04-26 07:26 34.17859 -118.88724 12210 ft 287 kts 168°
2026-04-26 07:27 34.15968 -118.88031 11817 ft 285 kts 168°
2026-04-26 07:27 34.14074 -118.87336 11435 ft 283 kts 168°
2026-04-26 07:27 34.12194 -118.86646 11032 ft 282 kts 168°
2026-04-26 07:27 34.10320 -118.85960 10659 ft 280 kts 168°
2026-04-26 07:28 34.08458 -118.85277 10278 ft 279 kts 168°
2026-04-26 07:28 34.06619 -118.84602 10088 ft 271 kts 168°
2026-04-26 07:28 34.04854 -118.83952 10018 ft 260 kts 168°
2026-04-26 07:28 34.03156 -118.83323 9938 ft 250 kts 166°
2026-04-26 07:29 34.01569 -118.82504 9787 ft 246 kts 159°
2026-04-26 07:29 34.00047 -118.81591 9495 ft 244 kts 158°
2026-04-26 07:29 33.98650 -118.80414 9132 ft 252 kts 134°
2026-04-26 07:29 33.97710 -118.78615 8854 ft 254 kts 120°
2026-04-26 07:30 33.96936 -118.76698 8484 ft 256 kts 118°
2026-04-26 07:30 33.96143 -118.74684 7695 ft 275 kts 118°
2026-04-26 07:30 33.95297 -118.72574 6954 ft 284 kts 119°
2026-04-26 07:30 33.94429 -118.70443 6230 ft 282 kts 118°
2026-04-26 07:31 33.93571 -118.68351 5478 ft 274 kts 118°
2026-04-26 07:31 33.92765 -118.66350 4708 ft 256 kts 113°
2026-04-26 07:31 33.92528 -118.64306 3974 ft 240 kts 86°
2026-04-26 07:31 33.92712 -118.62426 3407 ft 214 kts 81°
2026-04-26 07:32 33.92908 -118.60753 2973 ft 194 kts 82°
2026-04-26 07:32 33.93071 -118.59248 2731 ft 168 kts 82°
2026-04-26 07:32 33.93208 -118.57929 2504 ft 150 kts 83°
2026-04-26 07:32 33.93332 -118.56717 2315 ft 139 kts 83°
2026-04-26 07:33 33.93447 -118.55590 2167 ft 138 kts 82°
2026-04-26 07:33 33.93566 -118.54424 1978 ft 142 kts 82°
2026-04-26 07:33 33.93686 -118.53244 1783 ft 142 kts 82°
2026-04-26 07:33 33.93804 -118.52079 1588 ft 139 kts 82°
2026-04-26 07:34 33.93922 -118.50919 1424 ft 141 kts 83°
2026-04-26 07:34 33.94040 -118.49762 1214 ft 138 kts 82°
2026-04-26 07:34 33.94157 -118.48612 1063 ft 139 kts 82°
2026-04-26 07:34 33.94276 -118.47451 856 ft 137 kts 83°
2026-04-26 07:35 33.94393 -118.46313 676 ft 137 kts 83°
2026-04-26 07:35 33.94523 -118.45195 474 ft 136 kts 84°
2026-04-26 07:35 33.94629 -118.44086 267 ft 129 kts 86°
2026-04-26 07:35 33.94732 -118.42996 127 ft 129 kts 88°
2026-04-26 07:36 33.94822 -118.42088 125 ft 81 kts 83°
2026-04-26 07:36 33.94858 -118.41667 125 ft 31 kts 91°
2026-04-26 07:36 33.94813 -118.41457 122 ft 23 kts 111°
2026-04-26 07:36 33.94801 -118.41420 123 ft 0 kts 115°
2026-04-26 07:39 33.94798 -118.41413 123 ft 2 kts 114°
2026-04-26 07:39 33.94789 -118.41388 122 ft 4 kts 112°
2026-04-26 07:39 33.94784 -118.41348 125 ft 6 kts 86°
2026-04-26 07:40 33.94788 -118.41294 123 ft 7 kts 83°
2026-04-26 07:40 33.94796 -118.41217 125 ft 12 kts 83°
2026-04-26 07:40 33.94810 -118.41092 125 ft 18 kts 81°
2026-04-26 07:40 33.94832 -118.40924 123 ft 23 kts 81°
2026-04-26 07:41 33.94852 -118.40723 125 ft 26 kts 83°
2026-04-26 07:41 33.94873 -118.40501 125 ft 28 kts 83°
2026-04-26 07:41 33.94887 -118.40360 125 ft 2 kts 83°
2026-04-26 07:41 33.94887 -118.40342 125 ft 0 kts 92°
2026-04-26 07:42 33.94887 -118.40332 125 ft 3 kts 92°
2026-04-26 07:42 33.94879 -118.40299 125 ft 5 kts 128°
2026-04-26 07:42 33.94843 -118.40284 123 ft 7 kts 168°
2026-04-26 07:43 33.94786 -118.40270 123 ft 10 kts 167°
2026-04-26 07:43 33.94726 -118.40257 123 ft 12 kts 173°
2026-04-26 07:43 33.94677 -118.40228 124 ft 6 kts 85°
2026-04-26 07:43 33.94684 -118.40208 125 ft 2 kts 77°
2026-04-26 07:44 33.94686 -118.40194 125 ft 1 kts 80°
2026-04-26 07:44 33.94687 -118.40186 125 ft 0 kts 81°